Time,TemperatureF,DewpointF,PressureIn,WindDirection,WindDirectionDegrees,WindSpeedMPH,WindSpeedGustMPH,Humidity,HourlyPrecipIn,Conditions,Clouds,dailyrainin,SoftwareType,DateUTC
2013-04-07 00:03:00,26.0,18.0,30.35,WSW,248,0.0,0.0,70,0.00,,,0.00,,2013-04-07 04:03:00,
2013-04-07 00:14:00,26.0,18.0,30.35,WSW,248,0.0,0.0,70,0.00,,,0.00,,2013-04-07 04:14:00,
2013-04-07 00:23:00,26.0,18.0,30.35,WSW,249,0.0,0.0,71,0.00,,,0.00,,2013-04-07 04:23:00,
2013-04-07 00:32:00,26.0,18.0,30.35,WSW,249,0.0,0.0,71,0.00,,,0.00,,2013-04-07 04:32:00,
2013-04-07 00:43:00,26.0,18.0,30.35,WSW,249,0.0,0.0,71,0.00,,,0.00,,2013-04-07 04:43:00,
2013-04-07 00:53:00,26.0,19.0,30.35,WSW,249,0.0,1.0,74,0.00,,,0.00,,2013-04-07 04:53:00,
2013-04-07 01:02:00,26.0,19.0,30.35,NNE,32,0.0,1.0,74,0.00,,,0.00,,2013-04-07 05:02:00,
2013-04-07 01:12:00,26.0,19.0,30.35,NNE,32,0.0,1.0,74,0.00,,,0.00,,2013-04-07 05:12:00,
2013-04-07 01:23:00,25.0,18.0,30.35,ENE,59,0.0,0.0,75,0.00,,,0.00,,2013-04-07 05:23:00,
2013-04-07 01:33:00,25.0,19.0,30.34,ENE,59,0.0,0.0,76,0.00,,,0.00,,2013-04-07 05:33:00,
2013-04-07 01:43:00,25.0,19.0,30.34,ENE,59,0.0,0.0,76,0.00,,,0.00,,2013-04-07 05:43:00,
2013-04-07 01:53:00,25.0,19.0,30.34,ENE,60,0.0,0.0,77,0.00,,,0.00,,2013-04-07 05:53:00,
2013-04-07 02:01:00,25.0,18.0,30.33,ENE,71,0.0,0.0,75,0.00,,,0.00,,2013-04-07 06:01:00,
2013-04-07 02:02:00,25.0,19.0,30.34,ENE,72,0.0,1.0,77,0.00,,,0.00,,2013-04-07 06:02:00,
2013-04-07 02:12:00,25.0,19.0,30.34,ENE,72,0.0,1.0,77,0.00,,,0.00,,2013-04-07 06:12:00,
2013-04-07 02:22:00,25.0,18.0,30.33,ENE,71,0.0,0.0,75,0.00,,,0.00,,2013-04-07 06:22:00,
2013-04-07 02:32:00,25.0,18.0,30.33,ENE,71,0.0,0.0,75,0.00,,,0.00,,2013-04-07 06:32:00,
2013-04-07 02:43:00,25.0,18.0,30.33,ENE,71,0.0,0.0,75,0.00,,,0.00,,2013-04-07 06:43:00,
2013-04-07 02:53:00,25.0,18.0,30.33,ENE,71,0.0,0.0,75,0.00,,,0.00,,2013-04-07 06:53:00,
2013-04-07 04:23:00,24.0,19.0,30.30,NNE,29,0.0,1.0,81,0.00,,,0.00,,2013-04-07 08:23:00,
2013-04-07 04:33:00,24.0,19.0,30.30,NNE,29,0.0,1.0,81,0.00,,,0.00,,2013-04-07 08:33:00,
2013-04-07 04:43:00,24.0,19.0,30.30,NNE,29,0.0,1.0,81,0.00,,,0.00,,2013-04-07 08:43:00,
2013-04-07 04:53:00,24.0,19.0,30.30,NNE,29,0.0,1.0,81,0.00,,,0.00,,2013-04-07 08:53:00,
2013-04-07 05:02:00,23.0,19.0,30.30,NNE,31,0.0,0.0,84,0.00,,,0.00,,2013-04-07 09:02:00,
2013-04-07 05:13:00,23.0,19.0,30.30,NNE,31,0.0,0.0,84,0.00,,,0.00,,2013-04-07 09:13:00,
2013-04-07 05:23:00,23.0,19.0,30.31,NNE,31,0.0,0.0,84,0.00,,,0.00,,2013-04-07 09:23:00,
2013-04-07 05:34:00,23.0,19.0,30.31,NNE,31,0.0,0.0,84,0.00,,,0.00,,2013-04-07 09:34:00,
2013-04-07 05:43:00,23.0,19.0,30.31,NNE,31,0.0,0.0,84,0.00,,,0.00,,2013-04-07 09:43:00,
2013-04-07 05:54:00,23.0,19.0,30.31,NNE,31,0.0,1.0,83,0.00,,,0.00,,2013-04-07 09:54:00,
2013-04-07 06:04:00,23.0,19.0,30.31,NNE,30,0.0,0.0,85,0.00,,,0.00,,2013-04-07 10:04:00,
2013-04-07 06:14:00,23.0,19.0,30.31,NNE,30,0.0,0.0,85,0.00,,,0.00,,2013-04-07 10:14:00,
2013-04-07 06:23:00,23.0,19.0,30.32,NNE,30,0.0,0.0,85,0.00,,,0.00,,2013-04-07 10:23:00,
2013-04-07 06:33:00,23.0,19.0,30.32,NNE,30,0.0,0.0,86,0.00,,,0.00,,2013-04-07 10:33:00,
2013-04-07 06:43:00,23.0,19.0,30.32,NNE,30,0.0,0.0,86,0.00,,,0.00,,2013-04-07 10:43:00,
2013-04-07 06:54:00,23.0,20.0,30.33,NNE,30,0.0,0.0,87,0.00,,,0.00,,2013-04-07 10:54:00,
2013-04-07 07:03:00,24.0,21.0,30.33,NNE,30,0.0,1.0,88,0.00,,,0.00,,2013-04-07 11:03:00,
2013-04-07 07:12:00,24.0,21.0,30.33,NNE,30,0.0,1.0,88,0.00,,,0.00,,2013-04-07 11:12:00,
2013-04-07 07:23:00,25.0,21.0,30.34,NNE,30,0.0,0.0,86,0.00,,,0.00,,2013-04-07 11:23:00,
2013-04-07 07:33:00,27.0,23.0,30.34,NNE,30,0.0,0.0,84,0.00,,,0.00,,2013-04-07 11:33:00,
2013-04-07 07:43:00,27.0,23.0,30.34,NNE,30,0.0,0.0,84,0.00,,,0.00,,2013-04-07 11:43:00,
2013-04-07 07:53:00,28.0,24.0,30.35,NNE,30,0.0,0.0,83,0.00,,,0.00,,2013-04-07 11:53:00,
2013-04-07 08:03:00,30.0,25.0,30.35,ENE,62,0.0,0.0,81,0.00,,,0.00,,2013-04-07 12:03:00,
2013-04-07 08:12:00,30.0,25.0,30.35,ENE,62,0.0,0.0,81,0.00,,,0.00,,2013-04-07 12:12:00,
2013-04-07 08:23:00,32.0,25.0,30.34,East,96,0.0,0.0,76,0.00,,,0.00,,2013-04-07 12:23:00,
2013-04-07 08:34:00,34.0,26.0,30.34,West,260,0.0,1.0,72,0.00,,,0.00,,2013-04-07 12:34:00,
2013-04-07 08:43:00,34.0,26.0,30.34,West,260,0.0,1.0,72,0.00,,,0.00,,2013-04-07 12:43:00,
2013-04-07 08:54:00,36.0,26.0,30.33,SSE,149,0.0,2.0,67,0.00,,,0.00,,2013-04-07 12:54:00,
2013-04-07 09:04:00,38.0,27.0,30.32,SW,235,2.0,7.0,64,0.00,,,0.00,,2013-04-07 13:04:00,
2013-04-07 09:13:00,38.0,27.0,30.32,SW,235,2.0,7.0,64,0.00,,,0.00,,2013-04-07 13:13:00,
2013-04-07 09:23:00,40.0,26.0,30.32,WSW,255,1.0,7.0,57,0.00,,,0.00,,2013-04-07 13:23:00,
2013-04-07 09:33:00,42.0,25.0,30.31,South,174,2.0,6.0,51,0.00,,,0.00,,2013-04-07 13:33:00,
2013-04-07 09:42:00,42.0,25.0,30.31,South,174,2.0,6.0,51,0.00,,,0.00,,2013-04-07 13:42:00,
2013-04-07 09:53:00,42.0,22.0,30.31,WSW,240,4.0,13.0,45,0.00,,,0.00,,2013-04-07 13:53:00,
2013-04-07 10:02:00,42.0,20.0,30.30,SW,236,5.0,14.0,41,0.00,,,0.00,,2013-04-07 14:02:00,
2013-04-07 10:12:00,42.0,20.0,30.30,SW,236,5.0,14.0,41,0.00,,,0.00,,2013-04-07 14:12:00,
2013-04-07 10:23:00,43.0,21.0,30.29,SW,226,4.0,10.0,41,0.00,,,0.00,,2013-04-07 14:23:00,
2013-04-07 10:33:00,43.0,20.0,30.29,SSW,211,4.0,10.0,40,0.00,,,0.00,,2013-04-07 14:33:00,
2013-04-07 10:44:00,43.0,20.0,30.29,SSW,211,4.0,10.0,40,0.00,,,0.00,,2013-04-07 14:44:00,
2013-04-07 10:55:00,44.0,22.0,30.29,WSW,245,5.0,12.0,41,0.00,,,0.00,,2013-04-07 14:55:00,
2013-04-07 11:03:00,44.0,24.0,30.28,South,181,4.0,11.0,45,0.00,,,0.00,,2013-04-07 15:03:00,
2013-04-07 11:13:00,44.0,24.0,30.28,South,181,4.0,11.0,45,0.00,,,0.00,,2013-04-07 15:13:00,
2013-04-07 11:22:00,45.0,25.0,30.27,West,277,8.0,19.0,45,0.00,,,0.00,,2013-04-07 15:22:00,
2013-04-07 11:35:00,46.0,26.0,30.26,South,176,6.0,17.0,46,0.00,,,0.00,,2013-04-07 15:35:00,
2013-04-07 11:45:00,46.0,26.0,30.26,South,176,6.0,17.0,46,0.00,,,0.00,,2013-04-07 15:45:00,
2013-04-07 11:55:00,47.0,26.0,30.25,SSE,163,6.0,19.0,43,0.00,,,0.00,,2013-04-07 15:55:00,
2013-04-07 12:04:00,49.0,24.0,30.24,SSW,210,7.0,15.0,37,0.00,,,0.00,,2013-04-07 16:04:00,
2013-04-07 12:14:00,49.0,24.0,30.24,SSW,210,7.0,15.0,37,0.00,,,0.00,,2013-04-07 16:14:00,
2013-04-07 12:25:00,49.0,22.0,30.24,SE,128,9.0,18.0,34,0.00,,,0.00,,2013-04-07 16:25:00,
2013-04-07 12:33:00,49.0,23.0,30.22,SW,232,7.0,16.0,35,0.00,,,0.00,,2013-04-07 16:33:00,
2013-04-07 12:43:00,49.0,23.0,30.22,SW,232,7.0,16.0,35,0.00,,,0.00,,2013-04-07 16:43:00,
2013-04-07 12:54:00,50.0,23.0,30.21,WSW,255,8.0,18.0,35,0.00,,,0.00,,2013-04-07 16:54:00,
2013-04-07 13:05:00,50.0,25.0,30.20,SE,141,7.0,19.0,38,0.00,,,0.00,,2013-04-07 17:05:00,
2013-04-07 13:13:00,50.0,25.0,30.20,SE,141,7.0,19.0,38,0.00,,,0.00,,2013-04-07 17:13:00,
2013-04-07 13:23:00,51.0,28.0,30.19,NW,318,7.0,17.0,40,0.00,,,0.00,,2013-04-07 17:23:00,
2013-04-07 13:33:00,52.0,28.0,30.17,South,181,7.0,16.0,40,0.00,,,0.00,,2013-04-07 17:33:00,
2013-04-07 13:43:00,52.0,28.0,30.17,South,181,7.0,16.0,40,0.00,,,0.00,,2013-04-07 17:43:00,
2013-04-07 13:54:00,53.0,28.0,30.16,West,259,6.0,16.0,38,0.00,,,0.00,,2013-04-07 17:54:00,
2013-04-07 14:02:00,53.0,28.0,30.16,SSE,166,7.0,19.0,38,0.00,,,0.00,,2013-04-07 18:02:00,
2013-04-07 14:14:00,53.0,28.0,30.16,SSE,166,7.0,19.0,38,0.00,,,0.00,,2013-04-07 18:14:00,
2013-04-07 14:23:00,53.0,29.0,30.15,NW,311,7.0,19.0,39,0.00,,,0.00,,2013-04-07 18:23:00,
2013-04-07 14:33:00,54.0,29.0,30.14,SW,222,6.0,17.0,38,0.00,,,0.00,,2013-04-07 18:33:00,
2013-04-07 14:43:00,54.0,29.0,30.14,SW,222,6.0,17.0,38,0.00,,,0.00,,2013-04-07 18:43:00,
2013-04-07 14:53:00,54.0,30.0,30.13,WSW,256,8.0,16.0,39,0.00,,,0.00,,2013-04-07 18:53:00,
2013-04-07 15:03:00,54.0,30.0,30.13,SW,232,6.0,18.0,40,0.00,,,0.00,,2013-04-07 19:03:00,
2013-04-07 15:13:00,54.0,30.0,30.13,SW,232,6.0,18.0,40,0.00,,,0.00,,2013-04-07 19:13:00,
2013-04-07 15:23:00,55.0,31.0,30.11,West,266,9.0,25.0,40,0.00,,,0.00,,2013-04-07 19:23:00,
2013-04-07 15:33:00,55.0,31.0,30.11,SSW,193,5.0,21.0,40,0.00,,,0.00,,2013-04-07 19:33:00,
2013-04-07 15:43:00,55.0,31.0,30.11,SSW,193,5.0,21.0,40,0.00,,,0.00,,2013-04-07 19:43:00,
2013-04-07 15:55:00,54.0,30.0,30.10,West,262,10.0,20.0,40,0.00,,,0.00,,2013-04-07 19:55:00,
2013-04-07 16:03:00,54.0,32.0,30.10,WSW,240,12.0,18.0,43,0.00,,,0.00,,2013-04-07 20:03:00,
2013-04-07 16:13:00,54.0,32.0,30.10,WSW,240,12.0,18.0,43,0.00,,,0.00,,2013-04-07 20:13:00,
2013-04-07 16:23:00,53.0,32.0,30.09,WNW,283,6.0,14.0,45,0.00,,,0.00,,2013-04-07 20:23:00,
2013-04-07 16:33:00,53.0,32.0,30.08,South,177,7.0,16.0,45,0.00,,,0.00,,2013-04-07 20:33:00,
2013-04-07 16:43:00,53.0,32.0,30.08,South,177,7.0,16.0,45,0.00,,,0.00,,2013-04-07 20:43:00,
2013-04-07 16:52:00,54.0,34.0,30.06,ESE,122,8.0,17.0,46,0.00,,,0.00,,2013-04-07 20:52:00,
2013-04-07 17:03:00,53.0,33.0,30.03,SE,142,10.0,23.0,47,0.00,,,0.00,,2013-04-07 21:03:00,
2013-04-07 17:13:00,53.0,33.0,30.03,SE,142,10.0,23.0,47,0.00,,,0.00,,2013-04-07 21:13:00,
2013-04-07 17:23:00,52.0,33.0,30.05,South,172,7.0,23.0,49,0.00,,,0.00,,2013-04-07 21:23:00,
2013-04-07 17:34:00,51.0,33.0,30.07,SW,221,4.0,14.0,50,0.00,,,0.00,,2013-04-07 21:34:00,
2013-04-07 17:45:00,51.0,33.0,30.07,SW,221,4.0,14.0,50,0.00,,,0.00,,2013-04-07 21:45:00,
2013-04-07 17:55:00,51.0,34.0,30.05,South,191,7.0,16.0,51,0.00,,,0.00,,2013-04-07 21:55:00,
2013-04-07 18:04:00,50.0,34.0,30.06,SW,231,4.0,13.0,53,0.00,,,0.00,,2013-04-07 22:04:00,
2013-04-07 18:14:00,50.0,34.0,30.06,SW,231,4.0,13.0,53,0.00,,,0.00,,2013-04-07 22:14:00,
2013-04-07 18:24:00,49.0,33.0,30.07,SW,216,7.0,17.0,53,0.00,,,0.00,,2013-04-07 22:24:00,
2013-04-07 18:34:00,49.0,32.0,30.07,South,187,5.0,13.0,52,0.00,,,0.00,,2013-04-07 22:34:00,
2013-04-07 18:43:00,49.0,32.0,30.07,South,187,5.0,13.0,52,0.00,,,0.00,,2013-04-07 22:43:00,
2013-04-07 18:54:00,49.0,34.0,30.09,West,275,4.0,9.0,55,0.00,,,0.00,,2013-04-07 22:54:00,
2013-04-07 19:03:00,49.0,34.0,30.07,SE,145,6.0,14.0,57,0.00,,,0.00,,2013-04-07 23:03:00,
2013-04-07 19:13:00,49.0,34.0,30.07,SE,145,6.0,14.0,57,0.00,,,0.00,,2013-04-07 23:13:00,
2013-04-07 19:23:00,48.0,36.0,30.08,WSW,254,5.0,12.0,62,0.00,,,0.00,,2013-04-07 23:23:00,
2013-04-07 19:32:00,47.0,36.0,30.07,WSW,242,5.0,11.0,66,0.00,,,0.00,,2013-04-07 23:32:00,
2013-04-07 19:43:00,47.0,36.0,30.07,WSW,242,5.0,11.0,66,0.00,,,0.00,,2013-04-07 23:43:00,
2013-04-07 19:53:00,47.0,37.0,30.08,WSW,243,1.0,8.0,69,0.00,,,0.00,,2013-04-07 23:53:00,
2013-04-07 20:02:00,46.0,37.0,30.07,ESE,110,4.0,9.0,70,0.00,,,0.00,,2013-04-08 00:02:00,
2013-04-07 20:12:00,46.0,37.0,30.07,ESE,110,4.0,9.0,70,0.00,,,0.00,,2013-04-08 00:12:00,
2013-04-07 20:23:00,46.0,37.0,30.07,WSW,256,1.0,11.0,71,0.00,,,0.00,,2013-04-08 00:23:00,
2013-04-07 20:33:00,46.0,38.0,30.07,SSW,207,3.0,8.0,73,0.00,,,0.00,,2013-04-08 00:33:00,
2013-04-07 20:42:00,46.0,38.0,30.07,SSW,207,3.0,8.0,73,0.00,,,0.00,,2013-04-08 00:42:00,
2013-04-07 20:53:00,45.0,38.0,30.07,WSW,252,1.0,8.0,75,0.00,,,0.00,,2013-04-08 00:53:00,
2013-04-07 21:03:00,45.0,38.0,30.07,SSW,206,3.0,10.0,77,0.00,,,0.00,,2013-04-08 01:03:00,
2013-04-07 21:12:00,45.0,38.0,30.07,SSW,206,3.0,10.0,77,0.00,,,0.00,,2013-04-08 01:12:00,
2013-04-07 21:23:00,45.0,38.0,30.07,SW,233,2.0,7.0,77,0.00,,,0.00,,2013-04-08 01:23:00,
2013-04-07 21:44:00,45.0,39.0,30.07,WSW,250,0.0,6.0,78,0.00,,,0.00,,2013-04-08 01:44:00,
2013-04-07 21:55:00,44.0,38.0,30.07,WSW,245,2.0,5.0,79,0.00,,,0.00,,2013-04-08 01:55:00,
2013-04-07 22:03:00,44.0,38.0,30.07,South,169,0.0,6.0,79,0.00,,,0.00,,2013-04-08 02:03:00,
2013-04-07 22:12:00,44.0,38.0,30.07,South,169,0.0,6.0,79,0.00,,,0.00,,2013-04-08 02:12:00,
2013-04-07 22:22:00,44.0,39.0,30.07,WSW,241,0.0,5.0,81,0.00,,,0.00,,2013-04-08 02:22:00,
2013-04-07 22:33:00,44.0,39.0,30.07,SE,134,0.0,6.0,81,0.00,,,0.00,,2013-04-08 02:33:00,
2013-04-07 22:47:00,44.0,39.0,30.07,SE,134,0.0,6.0,81,0.00,,,0.00,,2013-04-08 02:47:00,
2013-04-07 22:55:00,44.0,39.0,30.07,SSW,208,0.0,3.0,82,0.00,,,0.00,,2013-04-08 02:55:00,
2013-04-07 23:08:00,44.0,39.0,30.06,SE,131,0.0,2.0,83,0.00,,,0.00,,2013-04-08 03:08:00,
2013-04-07 23:15:00,44.0,39.0,30.06,SE,131,0.0,2.0,83,0.00,,,0.00,,2013-04-08 03:15:00,
2013-04-07 23:25:00,43.0,38.0,30.06,South,174,0.0,1.0,84,0.00,,,0.00,,2013-04-08 03:25:00,
2013-04-07 23:35:00,43.0,39.0,30.06,SE,132,0.0,2.0,85,0.00,,,0.00,,2013-04-08 03:35:00,
2013-04-07 23:47:00,43.0,39.0,30.06,SE,132,0.0,2.0,85,0.00,,,0.00,,2013-04-08 03:47:00,
2013-04-07 23:58:00,43.0,39.0,30.06,West,273,0.0,3.0,85,0.00,,,0.00,,2013-04-08 03:58:00,